FW7515 Weather Reports


Display with metric or nautical units.
time (UTC)temp
F
wind
direction
speed
MPH
gust
MPH
rain 1hr
in
rain 24hr
in
rain mn
in
humidity
%
barometer
mb
20260510185524 69 78 7.0 13.0 0.00 0.04 0.04 80 1017.1
20260510185042 69 76 7.0 15.0 0.00 0.04 0.04 81 1017.0
20260510184520 69 80 9.0 15.0 0.00 0.04 0.04 81 1017.2
20260510184017 69 61 6.0 13.0 0.00 0.04 0.04 82 1017.0
20260510183516 69 66 7.0 12.0 0.00 0.04 0.04 82 1017.0
20260510183034 69 66 7.0 13.0 0.00 0.04 0.04 82 1016.9
20260510182532 69 80 7.0 15.0 0.00 0.04 0.04 81 1016.9
20260510182030 69 80 8.0 12.0 0.00 0.04 0.04 81 1016.7
20260510181528 68 80 7.0 13.0 0.01 0.04 0.04 83 1016.9
20260510181026 68 70 6.0 12.0 0.04 0.04 0.04 84 1016.8
20260510180524 68 75 7.0 15.0 0.04 0.04 0.04 84 1016.6
20260510180022 68 80 8.0 13.0 0.04 0.04 0.04 85 1016.5
20260510175539 67 77 7.0 12.0 0.04 0.04 0.04 86 1016.7
20260510175057 67 71 9.0 17.0 0.04 0.04 0.04 85 1016.7
20260510174535 67 69 9.0 16.0 0.04 0.04 0.04 87 1016.7
20260510174033 67 71 8.0 14.0 0.04 0.04 0.04 88 1016.8
20260510173530 66 77 8.0 15.0 0.04 0.04 0.04 88 1016.8
20260510173049 66 70 8.0 15.0 0.04 0.04 0.04 89 1016.8
20260510172527 65 73 8.0 16.0 0.04 0.04 0.04 88 1016.9
20260510172025 66 70 9.0 20.0 0.04 0.04 0.04 87 1017.2
20260510171522 67 80 8.0 14.0 0.03 0.03 0.03 85 1017.0
20260510171021 67 73 8.0 17.0 0.00 0.00 0.00 81 1017.1
20260510170519 68 70 7.0 15.0 0.00 0.00 0.00 78 1017.2
20260510170018 69 68 8.0 16.0 0.00 0.00 0.00 75 1017.3
20260510165556 69 59 8.0 16.0 0.00 0.00 0.00 73 1017.2
20260510165054 69 51 11.0 20.0 0.00 0.00 0.00 72 1017.1
20260510164552 70 49 10.0 15.0 0.00 0.00 0.00 71 1017.2
20260510164030 73 45 11.0 28.0 0.00 0.00 0.00 66 1017.3
20260510163528 81 54 5.0 28.0 0.00 0.00 0.00 62 1016.4
20260510163026 81 137 2.0 6.0 0.00 0.00 0.00 61 1015.9
20260510162524 82 121 2.0 5.0 0.00 0.00 0.00 60 1015.5
20260510162022 82 130 3.0 8.0 0.00 0.00 0.00 60 1015.2
20260510161520 82 190 4.0 9.0 0.00 0.00 0.00 58 1015.0
20260510161017 82 188 4.0 10.0 0.00 0.00 0.00 58 1014.8
20260510160515 82 198 3.0 6.0 0.00 0.00 0.00 58 1014.3
20260510160034 81 218 4.0 11.0 0.00 0.00 0.00 59 1014.2
20260510155531 81 210 4.0 10.0 0.00 0.00 0.00 59 1014.1
20260510155029 81 178 4.0 9.0 0.00 0.00 0.00 59 1014.1
20260510154527 80 169 5.0 11.0 0.00 0.00 0.00 59 1014.0
20260510154025 79 172 4.0 11.0 0.00 0.00 0.00 60 1013.9
20260510153523 79 181 5.0 11.0 0.00 0.00 0.00 60 1013.9
20260510153022 79 179 5.0 13.0 0.00 0.00 0.00 59 1013.9
20260510152519 79 174 5.0 9.0 0.00 0.00 0.00 59 1013.7
20260510152017 79 186 5.0 9.0 0.00 0.00 0.00 59 1013.6
20260510151515 78 167 4.0 9.0 0.00 0.00 0.00 59 1013.7
20260510151033 78 155 5.0 13.0 0.00 0.00 0.00 59 1013.7
20260510150531 77 166 5.0 12.0 0.00 0.00 0.00 59 1013.7
20260510150028 77 185 4.0 12.0 0.00 0.00 0.00 59 1013.7
20260510145527 77 167 4.0 9.0 0.00 0.00 0.00 59 1013.7
20260510145025 76 154 4.0 12.0 0.00 0.00 0.00 59 1013.9
20260510144523 76 149 4.0 9.0 0.00 0.00 0.00 60 1014.0
20260510144021 76 126 5.0 16.0 0.00 0.00 0.00 60 1014.1
20260510143519 76 138 5.0 12.0 0.00 0.00 0.00 60 1014.1
20260510143017 75 130 3.0 9.0 0.00 0.00 0.00 62 1014.1
20260510142535 74 132 6.0 15.0 0.00 0.00 0.00 63 1014.3
20260510142052 74 121 5.0 11.0 0.00 0.00 0.00 63 1014.4
20260510141530 74 128 4.0 13.0 0.00 0.00 0.00 65 1014.4
20260510141028 74 134 4.0 11.0 0.00 0.00 0.00 65 1014.4
20260510140526 73 144 4.0 9.0 0.00 0.00 0.00 66 1014.6
20260510140024 72 128 4.0 9.0 0.00 0.00 0.00 67 1014.6
20260510135522 72 124 4.0 10.0 0.00 0.00 0.00 68 1014.7
20260510135020 71 120 5.0 10.0 0.00 0.00 0.00 69 1014.9
20260510134518 71 115 6.0 13.0 0.00 0.00 0.00 69 1014.8
20260510134037 71 122 5.0 13.0 0.00 0.00 0.00 69 1014.9
20260510133535 71 107 5.0 14.0 0.00 0.00 0.00 70 1014.8
20260510133033 71 107 5.0 12.0 0.00 0.00 0.00 70 1015.0
20260510132530 70 101 4.0 8.0 0.00 0.00 0.00 71 1015.1
20260510132029 70 97 5.0 10.0 0.00 0.00 0.00 71 1015.1
20260510131547 70 103 5.0 11.0 0.00 0.00 0.00 71 1015.0
20260510131025 70 113 5.0 11.0 0.00 0.00 0.00 71 1014.8
20260510130523 70 121 3.0 9.0 0.00 0.00 0.00 72 1014.9
20260510130022 70 116 3.0 7.0 0.00 0.00 0.00 72 1014.7
20260510125520 70 106 5.0 9.0 0.00 0.00 0.00 71 1014.5
20260510125038 70 109 4.0 10.0 0.00 0.00 0.00 71 1014.4
20260510124516 70 99 3.0 7.0 0.00 0.00 0.00 71 1014.3
20260510124034 70 95 3.0 6.0 0.00 0.00 0.00 71 1014.0
20260510123532 70 105 4.0 6.0 0.00 0.00 0.00 71 1014.0
20260510123030 70 101 5.0 11.0 0.00 0.00 0.00 71 1014.0
20260510122528 70 91 5.0 11.0 0.00 0.00 0.00 72 1014.0
20260510122026 69 110 5.0 10.0 0.00 0.00 0.00 73 1013.9
20260510121524 69 116 5.0 12.0 0.00 0.00 0.00 73 1013.8
20260510121022 69 121 5.0 12.0 0.00 0.00 0.00 74 1013.9
20260510120520 69 105 4.0 12.0 0.00 0.00 0.00 75 1013.8
20260510120018 69 108 3.0 7.0 0.00 0.00 0.00 75 1013.8
20260510115516 69 80 4.0 9.0 0.00 0.00 0.00 76 1013.7
20260510115054 69 87 5.0 11.0 0.00 0.00 0.00 76 1013.5
20260510114532 69 84 6.0 13.0 0.00 0.00 0.00 76 1013.5
20260510114030 68 108 6.0 12.0 0.00 0.00 0.00 76 1013.6
20260510113547 69 108 5.0 9.0 0.00 0.00 0.00 76 1013.5
20260510113025 69 108 5.0 10.0 0.00 0.00 0.00 76 1013.5
20260510112523 69 102 6.0 12.0 0.00 0.00 0.00 76 1013.6
20260510112021 69 100 5.0 11.0 0.00 0.00 0.00 76 1013.5
20260510111519 69 97 5.0 9.0 0.00 0.00 0.00 75 1013.7
20260510111017 69 91 4.0 10.0 0.00 0.00 0.00 76 1013.5
20260510110535 69 90 6.0 11.0 0.00 0.00 0.00 75 1013.6
20260510110032 69 91 6.0 13.0 0.00 0.00 0.00 75 1013.6
20260510105530 69 81 6.0 12.0 0.00 0.00 0.00 75 1013.6
20260510105029 69 90 5.0 13.0 0.00 0.00 0.00 75 1013.5
20260510104527 69 86 5.0 12.0 0.00 0.00 0.00 75 1013.4
20260510104045 69 87 7.0 11.0 0.00 0.00 0.00 75 1013.7
20260510103524 70 85 8.0 17.0 0.00 0.00 0.00 73 1013.4
20260510103023 70 84 7.0 13.0 0.00 0.00 0.00 73 1013.5
20260510102521 70 88 8.0 15.0 0.00 0.00 0.00 74 1013.3
20260510102020 70 82 9.0 17.0 0.00 0.00 0.00 74 1013.1
20260510101518 71 82 8.0 15.0 0.00 0.00 0.00 75 1013.1
20260510101015 71 78 9.0 16.0 0.00 0.00 0.00 75 1013.1
20260510100533 71 83 8.0 15.0 0.00 0.00 0.00 75 1013.1
20260510100051 71 79 9.0 16.0 0.00 0.00 0.00 75 1013.0
20260510095529 71 82 7.0 13.0 0.00 0.00 0.00 75 1013.0
20260510095027 71 78 10.0 17.0 0.00 0.00 0.00 75 1012.8
20260510094525 71 76 9.0 18.0 0.00 0.00 0.00 75 1012.8
20260510094023 71 76 8.0 15.0 0.00 0.00 0.00 76 1012.8
20260510093541 72 83 8.0 16.0 0.00 0.00 0.00 76 1012.8
20260510093019 72 76 10.0 18.0 0.00 0.00 0.00 76 1012.5
20260510092516 72 80 9.0 17.0 0.00 0.00 0.00 77 1012.4
20260510092034 73 81 8.0 15.0 0.00 0.00 0.00 79 1012.4
20260510091531 73 71 8.0 16.0 0.00 0.00 0.00 80 1012.3
20260510091029 74 74 9.0 18.0 0.00 0.00 0.00 82 1012.3
20260510090527 74 59 7.0 11.0 0.00 0.00 0.00 83 1012.1
20260510090025 74 61 7.0 11.0 0.00 0.00 0.00 83 1011.8
20260510085522 74 65 7.0 12.0 0.00 0.00 0.00 83 1011.8
20260510085021 74 69 5.0 10.0 0.00 0.00 0.00 82 1011.8
20260510084539 74 60 4.0 7.0 0.00 0.00 0.00 81 1012.0
20260510084017 74 61 5.0 10.0 0.00 0.00 0.00 80 1011.9
20260510083535 74 49 4.0 6.0 0.00 0.00 0.00 80 1011.8
20260510083033 74 60 3.0 6.0 0.00 0.00 0.00 79 1011.8
20260510082531 75 55 3.0 6.0 0.00 0.00 0.00 78 1011.9
20260510082029 75 49 5.0 9.0 0.00 0.00 0.00 78 1011.9
20260510081627 75 38 6.0 11.0 0.00 0.00 0.00 76 1011.9
20260510081045 75 40 5.0 8.0 0.00 0.00 0.00 76 1011.9
20260510080523 75 34 4.0 7.0 0.00 0.00 0.00 76 1011.9
20260510080021 75 40 3.0 6.0 0.00 0.00 0.00 75 1011.7
20260510075520 75 52 2.0 4.0 0.00 0.00 0.00 74 1011.1
20260510075037 75 67 2.0 3.0 0.00 0.00 0.00 73 1010.9
20260510074515 75 84 2.0 3.0 0.00 0.00 0.00 73 1010.8
20260510074033 76 81 2.0 4.0 0.00 0.00 0.00 72 1010.7
20260510073531 76 78 2.0 4.0 0.00 0.00 0.00 72 1010.6
20260510073029 76 81 2.0 5.0 0.00 0.00 0.00 71 1010.5
20260510072547 76 83 3.0 6.0 0.00 0.00 0.00 71 1010.4
20260510072025 77 88 1.0 4.0 0.00 0.00 0.00 70 1010.3
20260510071523 77 117 2.0 5.0 0.00 0.00 0.00 70 1010.1
20260510071021 77 121 3.0 5.0 0.00 0.00 0.00 69 1010.2
20260510070519 77 119 3.0 6.0 0.00 0.00 0.00 69 1010.0
20260510070018 77 133 2.0 5.0 0.00 0.00 0.00 69 1010.0
20260510065535 77 139 3.0 7.0 0.00 0.00 0.00 68 1010.0
20260510065054 78 123 4.0 8.0 0.00 0.00 0.00 68 1010.4
20260510064532 77 116 5.0 13.0 0.00 0.00 0.00 68 1010.4
20260510064030 77 115 5.0 8.0 0.00 0.00 0.00 69 1010.5
20260510063528 78 126 4.0 9.0 0.00 0.00 0.00 67 1010.7
20260510063026 77 89 5.0 15.0 0.00 0.00 0.00 69 1010.9
20260510062524 76 80 9.0 23.0 0.00 0.00 0.00 70 1011.3
20260510062022 76 61 9.0 16.0 0.00 0.00 0.00 70 1011.6
20260510061519 76 53 8.0 14.0 0.00 0.00 0.00 70 1011.7
20260510061018 76 54 9.0 15.0 0.00 0.00 0.00 69 1011.7
20260510060516 76 45 9.0 14.0 0.00 0.00 0.00 69 1011.5
20260510060034 76 40 9.0 15.0 0.00 0.00 0.00 69 1011.3
20260510055531 76 41 6.0 12.0 0.00 0.00 0.00 68 1010.6
20260510055050 76 62 2.0 3.0 0.00 0.00 0.00 68 1009.8
20260510054528 76 147 1.0 4.0 0.00 0.00 0.00 67 1009.3
20260510054025 77 122 1.0 2.0 0.00 0.00 0.00 67 1009.2
20260510053523 77 132 2.0 5.0 0.00 0.00 0.00 67 1009.3
20260510053021 77 121 2.0 5.0 0.00 0.00 0.00 66 1009.4
20260510052519 77 109 2.0 6.0 0.00 0.00 0.00 66 1009.2
20260510052017 77 124 3.0 6.0 0.00 0.00 0.00 66 1009.0
20260510051535 77 128 2.0 6.0 0.00 0.00 0.00 66 1008.8
20260510051053 77 125 3.0 6.0 0.00 0.00 0.00 65 1008.9
20260510050530 78 119 3.0 7.0 0.00 0.00 0.00 65 1008.8
20260510050028 78 139 2.0 7.0 0.00 0.00 0.00 65 1008.7
20260510045526 78 144 3.0 5.0 0.00 0.00 0.00 64 1008.5
20260510045024 78 151 2.0 5.0 0.00 0.00 0.00 64 1008.3
20260510044522 78 155 3.0 8.0 0.00 0.00 0.00 63 1008.3
20260510044100 78 165 3.0 8.0 0.00 0.00 0.00 62 1008.4
20260510043518 78 152 4.0 10.0 0.00 0.00 0.00 62 1008.3
20260510043016 78 152 3.0 8.0 0.00 0.00 0.00 62 1008.5
20260510042534 78 143 4.0 7.0 0.00 0.00 0.00 62 1008.5
20260510042032 78 150 3.0 8.0 0.00 0.00 0.00 61 1008.6
20260510041531 79 138 2.0 5.0 0.00 0.00 0.00 61 1008.7
20260510041029 79 139 4.0 8.0 0.00 0.00 0.00 60 1008.8
20260510040608 79 146 3.0 6.0 0.00 0.00 0.00 60 1008.9
20260510040045 79 138 3.0 7.0 0.00 0.00 0.00 60 1008.8
20260510035523 79 135 4.0 8.0 0.00 0.00 0.00 60 1008.8
20260510035021 79 131 3.0 9.0 0.00 0.00 0.00 59 1008.8
20260510034519 79 121 3.0 7.0 0.00 0.00 0.00 59 1008.7
20260510034017 79 133 3.0 7.0 0.00 0.00 0.00 58 1008.9
20260510033535 79 140 2.0 5.0 0.00 0.00 0.00 58 1008.9
20260510033033 79 126 2.0 7.0 0.00 0.00 0.00 58 1008.9
20260510032531 79 135 2.0 6.0 0.00 0.00 0.00 58 1009.0
20260510032029 80 122 3.0 5.0 0.00 0.00 0.00 57 1009.0
20260510031527 80 125 2.0 4.0 0.00 0.00 0.00 57 1009.1
20260510031045 80 123 2.0 5.0 0.00 0.00 0.00 56 1009.1
20260510030522 80 128 2.0 5.0 0.00 0.00 0.00 56 1009.0
20260510030020 80 126 3.0 7.0 0.00 0.00 0.00 56 1009.0
20260510025518 81 129 3.0 5.0 0.00 0.00 0.00 56 1009.1
20260510025016 81 118 3.0 6.0 0.00 0.00 0.00 56 1009.2
20260510024535 81 105 2.0 6.0 0.00 0.00 0.00 56 1009.0
20260510024053 81 106 2.0 5.0 0.00 0.00 0.00 55 1008.9
20260510023531 81 108 3.0 6.0 0.00 0.00 0.00 55 1009.0
20260510023030 82 108 2.0 6.0 0.00 0.00 0.00 55 1009.0
20260510022527 82 106 2.0 6.0 0.00 0.00 0.00 54 1008.9
20260510022025 82 120 3.0 6.0 0.00 0.00 0.00 54 1008.7
20260510021544 82 114 3.0 7.0 0.00 0.00 0.00 54 1008.7
20260510021022 82 111 3.0 6.0 0.00 0.00 0.00 54 1008.7
20260510020540 82 124 3.0 6.0 0.00 0.00 0.00 54 1008.7
20260510020017 83 123 3.0 6.0 0.00 0.00 0.00 54 1008.5
20260510015516 83 119 3.0 7.0 0.00 0.00 0.00 53 1008.5
20260510015034 83 109 3.0 5.0 0.00 0.00 0.00 51 1008.4
20260510014532 83 115 2.0 5.0 0.00 0.00 0.00 49 1008.4
20260510014030 84 115 1.0 2.0 0.00 0.00 0.00 49 1008.4
20260510013529 84 131 1.0 4.0 0.00 0.00 0.00 48 1008.4
20260510013026 84 129 2.0 4.0 0.00 0.00 0.00 47 1008.3
20260510012524 85 88 1.0 3.0 0.00 0.00 0.00 47 1008.2
20260510012023 85 110 1.0 4.0 0.00 0.00 0.00 48 1008.1
20260510011521 85 121 3.0 4.0 0.00 0.00 0.00 48 1007.9
20260510011019 85 118 2.0 5.0 0.00 0.00 0.00 48 1007.8
20260510010517 85 102 1.0 4.0 0.00 0.00 0.00 48 1007.9
20260510010035 86 94 2.0 4.0 0.00 0.00 0.00 48 1007.9
20260510005532 86 87 3.0 5.0 0.00 0.00 0.00 47 1007.9
20260510005051 86 89 3.0 4.0 0.00 0.00 0.00 47 1007.9
20260510004528 87 86 3.0 6.0 0.00 0.00 0.00 46 1007.8
20260510004027 87 93 2.0 4.0 0.00 0.00 0.00 46 1007.9
20260510003545 87 83 4.0 6.0 0.00 0.00 0.00 46 1007.7
20260510003022 87 83 3.0 6.0 0.00 0.00 0.00 45 1007.7
20260510002520 87 82 4.0 6.0 0.00 0.00 0.00 45 1007.7
20260510002018 88 80 4.0 6.0 0.00 0.00 0.00 45 1007.8
20260510001516 88 113 3.0 6.0 0.00 0.00 0.00 44 1007.9
20260510001034 88 93 3.0 6.0 0.00 0.00 0.00 44 1007.8
20260510000533 88 87 4.0 7.0 0.00 0.00 0.00 44 1007.9
20260510000031 88 83 3.0 6.0 0.00 0.00 0.00 44 1007.9
20260509235528 88 82 4.0 8.0 0.00 0.00 0.00 44 1007.9
20260509235026 88 101 3.0 6.0 0.00 0.00 0.00 44 1008.0
20260509234524 88 77 4.0 8.0 0.00 0.00 0.00 45 1007.9
20260509234023 88 80 4.0 7.0 0.00 0.00 0.00 45 1008.1
20260509233520 88 75 4.0 8.0 0.00 0.00 0.00 46 1008.1
20260509233018 88 79 4.0 5.0 0.00 0.00 0.00 46 1008.1
20260509232516 88 73 4.0 8.0 0.00 0.00 0.00 46 1008.1
20260509232034 88 64 3.0 8.0 0.00 0.00 0.00 47 1008.2
20260509231532 88 81 4.0 7.0 0.00 0.00 0.00 47 1008.1
20260509231030 89 66 4.0 7.0 0.00 0.00 0.00 46 1008.0
20260509230528 88 63 4.0 8.0 0.00 0.00 0.00 47 1008.1
20260509230046 88 64 5.0 8.0 0.00 0.00 0.00 47 1008.2
20260509225523 88 68 5.0 9.0 0.00 0.00 0.00 46 1008.1
20260509225021 89 74 3.0 7.0 0.00 0.00 0.00 46 1008.1
20260509224519 89 86 3.0 7.0 0.00 0.00 0.00 46 1008.1
20260509224017 89 82 3.0 7.0 0.00 0.00 0.00 46 1008.0
20260509223515 89 68 3.0 6.0 0.00 0.00 0.00 46 1008.0
20260509223033 88 72 3.0 6.0 0.00 0.00 0.00 46 1008.1
20260509222531 88 91 6.0 11.0 0.00 0.00 0.00 47 1008.3
20260509222029 88 69 5.0 9.0 0.00 0.00 0.00 48 1008.3
20260509221528 88 89 4.0 8.0 0.00 0.00 0.00 47 1008.2
20260509221026 88 81 5.0 9.0 0.00 0.00 0.00 48 1008.2
20260509220524 88 74 5.0 10.0 0.00 0.00 0.00 48 1008.2
20260509220022 89 78 3.0 6.0 0.00 0.00 0.00 48 1008.2
20260509215521 89 68 5.0 9.0 0.00 0.00 0.00 49 1008.3
20260509215019 88 55 5.0 7.0 0.00 0.00 0.00 49 1008.3
20260509214517 88 61 4.0 7.0 0.00 0.00 0.00 49 1008.2
20260509214035 89 51 3.0 6.0 0.00 0.00 0.00 49 1008.1
20260509213533 89 52 4.0 9.0 0.00 0.00 0.00 49 1008.3
20260509213030 88 76 3.0 6.0 0.00 0.00 0.00 50 1008.3
20260509212528 88 81 5.0 11.0 0.00 0.00 0.00 50 1008.3
20260509212046 90 76 5.0 9.0 0.00 0.00 0.00 47 1008.4
20260509211524 89 42 2.0 4.0 0.00 0.00 0.00 46 1008.5
20260509211022 89 90 3.0 6.0 0.00 0.00 0.00 45 1008.6
20260509210520 88 76 4.0 6.0 0.00 0.00 0.00 46 1008.7
20260509210017 89 71 4.0 7.0 0.00 0.00 0.00 46 1008.8
20260509205515 90 90 3.0 6.0 0.00 0.00 0.00 45 1009.0
20260509205034 91 114 2.0 5.0 0.00 0.00 0.00 43 1008.9
20260509204532 89 159 2.0 6.0 0.00 0.00 0.00 45 1009.1
20260509204049 89 8 2.0 5.0 0.00 0.00 0.00 46 1009.0
20260509203547 89 101 2.0 5.0 0.00 0.00 0.00 46 1009.1
20260509203025 89 76 3.0 7.0 0.00 0.00 0.00 47 1009.1
20260509202523 90 97 2.0 7.0 0.00 0.00 0.00 46 1009.2
20260509202022 90 26 2.0 6.0 0.00 0.00 0.00 45 1009.2
20260509201540 90 332 1.0 6.0 0.00 0.00 0.00 45 1009.5
20260509201018 89 234 2.0 5.0 0.00 0.00 0.00 45 1009.3
20260509200516 88 83 3.0 7.0 0.00 0.00 0.00 46 1009.4
20260509200034 89 69 3.0 8.0 0.00 0.00 0.00 46 1009.5
20260509195532 88 311 2.0 6.0 0.00 0.00 0.00 45 1009.5
20260509195050 88 78 3.0 6.0 0.00 0.00 0.00 46 1009.6
20260509194528 88 44 2.0 6.0 0.00 0.00 0.00 45 1009.7
20260509194105 88 4 2.0 6.0 0.00 0.00 0.00 44 1009.7
20260509193543 89 337 3.0 7.0 0.00 0.00 0.00 44 1009.7
20260509193041 88 237 4.0 6.0 0.00 0.00 0.00 44 1009.9
20260509192519 87 276 3.0 6.0 0.00 0.00 0.00 45 1010.0
20260509192018 87 46 4.0 9.0 0.00 0.00 0.00 47 1009.9
20260509191515 88 348 3.0 5.0 0.00 0.00 0.00 47 1009.9
20260509191033 87 332 2.0 5.0 0.00 0.00 0.00 48 1010.0
20260509190532 87 353 3.0 6.0 0.00 0.00 0.00 49 1010.1
20260509190030 86 20 3.0 6.0 0.00 0.00 0.00 48 1010.1